owner,sensor,date,latitude,longitude,vertical_datum,direction_of_sea_water_velocity,sea_water_speed,upward_sea_water_velocity,qcFlag 
TABS,ioos:station:wmo:42043:1,2010-07-01T00:00:00Z,28.9818,-94.9186,2.0,242.8325234,81.71490745,-99999.0,'11111222,11111222,99999999' 
TABS,ioos:station:wmo:42043:1,2010-07-01T00:30:00Z,28.9818,-94.9186,2.0,245.484978,97.24624877,-99999.0,'11111222,11111222,99999999' 
TABS,ioos:station:wmo:42043:1,2010-07-01T01:00:00Z,28.9818,-94.9186,2.0,243.4196258,102.7383828,-99999.0,'11111222,11111222,99999999' 
TABS,ioos:station:wmo:42043:1,2010-07-01T01:30:00Z,28.9818,-94.9186,2.0,242.9229212,100.1574785,-99999.0,'11111222,11111222,99999999' 
TABS,ioos:station:wmo:42043:1,2010-07-01T02:00:00Z,28.9818,-94.9186,2.0,237.7284736,97.11063073,-99999.0,'11111222,11111222,99999999' 
TABS,ioos:station:wmo:42043:1,2010-07-01T02:30:00Z,28.9818,-94.9186,2.0,238.9382216,96.57785357,-99999.0,'11111222,11111222,99999999' 
TABS,ioos:station:wmo:42043:1,2010-07-01T03:00:00Z,28.9818,-94.9186,2.0,240.5550547,96.32173638,-99999.0,'11111222,11111222,99999999' 
TABS,ioos:station:wmo:42043:1,2010-07-01T03:30:00Z,28.9818,-94.9186,2.0,242.0976846,88.93921745,-99999.0,'11111222,11111222,99999999' 
TABS,ioos:station:wmo:42043:1,2010-07-01T04:00:00Z,28.9818,-94.9186,2.0,233.2370922,87.5521536,-99999.0,'11111222,11111222,99999999' 
TABS,ioos:station:wmo:42043:1,2010-07-01T04:30:00Z,28.9818,-94.9186,2.0,244.5764872,88.8655732,-99999.0,'11111222,11111222,99999999' 
TABS,ioos:station:wmo:42043:1,2010-07-01T05:00:00Z,28.9818,-94.9186,2.0,238.2626292,87.81012755,-99999.0,'11111222,11111222,99999999' 
TABS,ioos:station:wmo:42043:1,2010-07-01T05:30:00Z,28.9818,-94.9186,2.0,238.173906,88.91835918,-99999.0,'11111222,11111222,99999999' 
TABS,ioos:station:wmo:42043:1,2010-07-01T06:00:00Z,28.9818,-94.9186,2.0,244.7134662,88.56588113,-99999.0,'11111222,11111222,99999999' 
TABS,ioos:station:wmo:42043:1,2010-07-01T06:30:00Z,28.9818,-94.9186,2.0,245.4904028,92.25246067,-99999.0,'11111222,11111222,99999999' 
TABS,ioos:station:wmo:42043:1,2010-07-01T07:00:00Z,28.9818,-94.9186,2.0,243.2130592,82.12244638,-99999.0,'11111222,11111222,99999999' 
TABS,ioos:station:wmo:42043:1,2010-07-01T07:30:00Z,28.9818,-94.9186,2.0,243.0303166,86.83315323,-99999.0,'11111222,11111222,99999999' 
TABS,ioos:station:wmo:42043:1,2010-07-01T08:00:00Z,28.9818,-94.9186,2.0,242.9430577,83.40840485,-99999.0,'11111222,11111222,99999999' 
TABS,ioos:station:wmo:42043:1,2010-07-01T08:30:00Z,28.9818,-94.9186,2.0,249.0437349,97.77738491,-99999.0,'11111222,11111222,99999999' 
TABS,ioos:station:wmo:42043:1,2010-07-01T09:00:00Z,28.9818,-94.9186,2.0,251.1679103,84.48227329,-99999.0,'11111222,11111222,99999999' 
TABS,ioos:station:wmo:42043:1,2010-07-01T09:30:00Z,28.9818,-94.9186,2.0,246.2803934,96.38158797,-99999.0,'11111222,11111222,99999999' 
TABS,ioos:station:wmo:42043:1,2010-07-01T10:00:00Z,28.9818,-94.9186,2.0,241.9224968,86.77176499,-99999.0,'11111222,11111222,99999999' 
TABS,ioos:station:wmo:42043:1,2010-07-01T10:30:00Z,28.9818,-94.9186,2.0,242.4961188,93.65461761,-99999.0,'11111222,11111222,99999999' 
TABS,ioos:station:wmo:42043:1,2010-07-01T11:00:00Z,28.9818,-94.9186,2.0,240.6990563,113.5696174,-99999.0,'11111222,11111222,99999999' 
TABS,ioos:station:wmo:42043:1,2010-07-01T11:30:00Z,28.9818,-94.9186,2.0,231.6654997,113.4870587,-99999.0,'11111222,11111222,99999999' 
TABS,ioos:station:wmo:42043:1,2010-07-01T12:00:00Z,28.9818,-94.9186,2.0,230.2878977,108.7136997,-99999.0,'11111222,11111222,99999999' 
TABS,ioos:station:wmo:42043:1,2010-07-01T12:30:00Z,28.9818,-94.9186,2.0,227.8788661,104.876116,-99999.0,'11111222,11111222,99999999' 
TABS,ioos:station:wmo:42043:1,2010-07-01T13:00:00Z,28.9818,-94.9186,2.0,223.5356314,96.31110009,-99999.0,'11111222,11111222,99999999' 
TABS,ioos:station:wmo:42043:1,2010-07-01T13:30:00Z,28.9818,-94.9186,2.0,227.9105153,83.5463943,-99999.0,'11111222,11111222,99999999' 
TABS,ioos:station:wmo:42043:1,2010-07-01T14:00:00Z,28.9818,-94.9186,2.0,238.7893565,76.92297251,-99999.0,'11111222,11111222,99999999' 
TABS,ioos:station:wmo:42043:1,2010-07-01T14:30:00Z,28.9818,-94.9186,2.0,246.0519786,78.44260131,-99999.0,'11111222,11111222,99999999' 
TABS,ioos:station:wmo:42043:1,2010-07-01T15:00:00Z,28.9818,-94.9186,2.0,145.9643453,34.5002058,-99999.0,'11111222,11111222,99999999' 
TABS,ioos:station:wmo:42043:1,2010-07-01T15:30:00Z,28.9818,-94.9186,2.0,150.7526663,36.69830105,-99999.0,'11111222,11111222,99999999' 
TABS,ioos:station:wmo:42043:1,2010-07-01T16:00:00Z,28.9818,-94.9186,2.0,153.9470277,34.01642544,-99999.0,'11111222,11111222,99999999' 
TABS,ioos:station:wmo:42043:1,2010-07-01T16:30:00Z,28.9818,-94.9186,2.0,152.480218,33.28625542,-99999.0,'11111222,11111222,99999999' 
TABS,ioos:station:wmo:42043:1,2010-07-01T17:00:00Z,28.9818,-94.9186,2.0,153.4018103,31.06793363,-99999.0,'11111222,11111222,99999999' 
TABS,ioos:station:wmo:42043:1,2010-07-01T17:30:00Z,28.9818,-94.9186,2.0,160.4839622,26.82088738,-99999.0,'11111222,11111222,99999999' 
TABS,ioos:station:wmo:42043:1,2010-07-01T18:00:00Z,28.9818,-94.9186,2.0,168.226612,23.77005259,-99999.0,'11111222,11111222,99999999' 
TABS,ioos:station:wmo:42043:1,2010-07-01T18:30:00Z,28.9818,-94.9186,2.0,182.793679,23.38780024,-99999.0,'11111222,11111222,99999999' 
TABS,ioos:station:wmo:42043:1,2010-07-01T19:00:00Z,28.9818,-94.9186,2.0,180.8237353,20.86215713,-99999.0,'11111222,11111222,99999999' 
TABS,ioos:station:wmo:42043:1,2010-07-01T19:30:00Z,28.9818,-94.9186,2.0,191.9654605,19.5344465,-99999.0,'11111222,11111222,99999999' 
TABS,ioos:station:wmo:42043:1,2010-07-01T20:00:00Z,28.9818,-94.9186,2.0,197.6110127,19.79790393,-99999.0,'11111222,11111222,99999999' 
TABS,ioos:station:wmo:42043:1,2010-07-01T20:30:00Z,28.9818,-94.9186,2.0,198.2290077,15.85576236,-99999.0,'11111222,11111222,99999999' 
TABS,ioos:station:wmo:42043:1,2010-07-01T21:00:00Z,28.9818,-94.9186,2.0,214.2580853,15.09968212,-99999.0,'11111222,11111222,99999999' 
TABS,ioos:station:wmo:42043:1,2010-07-01T21:30:00Z,28.9818,-94.9186,2.0,228.7514046,11.23879887,-99999.0,'11111222,11111222,99999999' 
TABS,ioos:station:wmo:42043:1,2010-07-01T22:00:00Z,28.9818,-94.9186,2.0,247.6220926,12.00395352,-99999.0,'11111222,11111222,99999999' 
TABS,ioos:station:wmo:42043:1,2010-07-01T22:30:00Z,28.9818,-94.9186,2.0,267.3488956,11.89272467,-99999.0,'11111222,11111222,99999999' 
TABS,ioos:station:wmo:42043:1,2010-07-01T23:00:00Z,28.9818,-94.9186,2.0,282.1188142,10.14609777,-99999.0,'11111222,11111222,99999999' 
TABS,ioos:station:wmo:42043:1,2010-07-01T23:30:00Z,28.9818,-94.9186,2.0,280.3481342,15.53262695,-99999.0,'11111222,11111222,99999999' 
TABS,ioos:station:wmo:42043:1,2010-07-02T00:00:00Z,28.9818,-94.9186,2.0,289.2080534,14.7723424,-99999.0,'11111222,11111222,99999999' 
TABS,ioos:station:wmo:42043:1,2010-07-02T00:30:00Z,28.9818,-94.9186,2.0,302.4741046,17.11635767,-99999.0,'11111222,11111222,99999999' 
TABS,ioos:station:wmo:42043:1,2010-07-02T01:00:00Z,28.9818,-94.9186,2.0,248.5470275,70.46154483,-99999.0,'11111222,11111222,99999999' 
TABS,ioos:station:wmo:42043:1,2010-07-02T01:30:00Z,28.9818,-94.9186,2.0,243.3974574,89.70659396,-99999.0,'11111222,11111222,99999999' 
TABS,ioos:station:wmo:42043:1,2010-07-02T02:00:00Z,28.9818,-94.9186,2.0,229.0589287,112.7765317,-99999.0,'11111222,11111222,99999999' 
TABS,ioos:station:wmo:42043:1,2010-07-02T02:30:00Z,28.9818,-94.9186,2.0,231.0274639,114.000732,-99999.0,'11111222,11111222,99999999' 
TABS,ioos:station:wmo:42043:1,2010-07-02T03:00:00Z,28.9818,-94.9186,2.0,230.7927905,108.4441949,-99999.0,'11111222,11111222,99999999' 
TABS,ioos:station:wmo:42043:1,2010-07-02T03:30:00Z,28.9818,-94.9186,2.0,231.4582732,107.3056592,-99999.0,'11111222,11111222,99999999' 
TABS,ioos:station:wmo:42043:1,2010-07-02T04:00:00Z,28.9818,-94.9186,2.0,232.7550814,110.4063608,-99999.0,'11111222,11111222,99999999' 
TABS,ioos:station:wmo:42043:1,2010-07-02T04:30:00Z,28.9818,-94.9186,2.0,230.9562662,111.2700521,-99999.0,'11111222,11111222,99999999' 
TABS,ioos:station:wmo:42043:1,2010-07-02T05:00:00Z,28.9818,-94.9186,2.0,236.884079,103.4540135,-99999.0,'11111222,11111222,99999999' 
TABS,ioos:station:wmo:42043:1,2010-07-02T05:30:00Z,28.9818,-94.9186,2.0,234.8926725,112.2751415,-99999.0,'11111222,11111222,99999999' 
TABS,ioos:station:wmo:42043:1,2010-07-02T06:00:00Z,28.9818,-94.9186,2.0,234.6353651,106.7948697,-99999.0,'11111222,11111222,99999999' 
TABS,ioos:station:wmo:42043:1,2010-07-02T06:30:00Z,28.9818,-94.9186,2.0,239.2220857,103.4382028,-99999.0,'11111222,11111222,99999999' 
TABS,ioos:station:wmo:42043:1,2010-07-02T07:00:00Z,28.9818,-94.9186,2.0,238.7826931,102.8401308,-99999.0,'11111222,11111222,99999999' 
TABS,ioos:station:wmo:42043:1,2010-07-02T07:30:00Z,28.9818,-94.9186,2.0,238.2798637,95.27061299,-99999.0,'11111222,11111222,99999999' 
TABS,ioos:station:wmo:42043:1,2010-07-02T08:00:00Z,28.9818,-94.9186,2.0,234.695855,89.42540355,-99999.0,'11111222,11111222,99999999' 
TABS,ioos:station:wmo:42043:1,2010-07-02T08:30:00Z,28.9818,-94.9186,2.0,238.0874917,85.99774183,-99999.0,'11111222,11111222,99999999' 
TABS,ioos:station:wmo:42043:1,2010-07-02T09:00:00Z,28.9818,-94.9186,2.0,234.8832228,86.01627753,-99999.0,'11111222,11111222,99999999' 
TABS,ioos:station:wmo:42043:1,2010-07-02T09:30:00Z,28.9818,-94.9186,2.0,234.9522012,102.4458189,-99999.0,'11111222,11111222,99999999' 
TABS,ioos:station:wmo:42043:1,2010-07-02T10:00:00Z,28.9818,-94.9186,2.0,237.3912502,101.5226797,-99999.0,'11111222,11111222,99999999' 
TABS,ioos:station:wmo:42043:1,2010-07-02T10:30:00Z,28.9818,-94.9186,2.0,232.8782887,101.1589744,-99999.0,'11111222,11111222,99999999' 
TABS,ioos:station:wmo:42043:1,2010-07-02T11:00:00Z,28.9818,-94.9186,2.0,228.6307263,108.0790313,-99999.0,'11111222,11111222,99999999' 
TABS,ioos:station:wmo:42043:1,2010-07-02T11:30:00Z,28.9818,-94.9186,2.0,226.6652473,102.1776727,-99999.0,'11111222,11111222,99999999' 
TABS,ioos:station:wmo:42043:1,2010-07-02T12:00:00Z,28.9818,-94.9186,2.0,230.1595837,68.00936186,-99999.0,'11111222,11111222,99999999' 
TABS,ioos:station:wmo:42043:1,2010-07-02T12:30:00Z,28.9818,-94.9186,2.0,237.2633304,62.65097286,-99999.0,'11111222,11111222,99999999' 
TABS,ioos:station:wmo:42043:1,2010-07-02T13:00:00Z,28.9818,-94.9186,2.0,239.9602605,78.66634859,-99999.0,'11111222,11111222,99999999' 
TABS,ioos:station:wmo:42043:1,2010-07-02T13:30:00Z,28.9818,-94.9186,2.0,244.6538614,68.30498152,-99999.0,'11111222,11111222,99999999' 
TABS,ioos:station:wmo:42043:1,2010-07-02T14:00:00Z,28.9818,-94.9186,2.0,244.3892111,78.38058943,-99999.0,'11111222,11111222,99999999' 
TABS,ioos:station:wmo:42043:1,2010-07-02T14:30:00Z,28.9818,-94.9186,2.0,244.1608564,96.31965791,-99999.0,'11111222,11111222,99999999' 
TABS,ioos:station:wmo:42043:1,2010-07-02T15:00:00Z,28.9818,-94.9186,2.0,238.6839329,91.85123026,-99999.0,'11111222,11111222,99999999' 
TABS,ioos:station:wmo:42043:1,2010-07-02T15:30:00Z,28.9818,-94.9186,2.0,241.117879,89.83366685,-99999.0,'11111222,11111222,99999999' 
TABS,ioos:station:wmo:42043:1,2010-07-02T16:00:00Z,28.9818,-94.9186,2.0,237.1043543,96.77675961,-99999.0,'11111222,11111222,99999999' 
TABS,ioos:station:wmo:42043:1,2010-07-02T16:30:00Z,28.9818,-94.9186,2.0,236.5256362,95.6198996,-99999.0,'11111222,11111222,99999999' 
TABS,ioos:station:wmo:42043:1,2010-07-02T17:00:00Z,28.9818,-94.9186,2.0,236.2960914,105.9477404,-99999.0,'11111222,11111222,99999999' 
TABS,ioos:station:wmo:42043:1,2010-07-02T17:30:00Z,28.9818,-94.9186,2.0,233.5538937,106.722924,-99999.0,'11111222,11111222,99999999' 
TABS,ioos:station:wmo:42043:1,2010-07-02T18:00:00Z,28.9818,-94.9186,2.0,236.004658,113.6069826,-99999.0,'11111222,11111222,99999999' 
TABS,ioos:station:wmo:42043:1,2010-07-02T18:30:00Z,28.9818,-94.9186,2.0,237.5661621,113.0667701,-99999.0,'11111222,11111222,99999999' 
TABS,ioos:station:wmo:42043:1,2010-07-02T19:00:00Z,28.9818,-94.9186,2.0,231.3914709,110.9630646,-99999.0,'11111222,11111222,99999999' 
TABS,ioos:station:wmo:42043:1,2010-07-02T19:30:00Z,28.9818,-94.9186,2.0,231.0763085,110.6830777,-99999.0,'11111222,11111222,99999999' 
TABS,ioos:station:wmo:42043:1,2010-07-02T20:00:00Z,28.9818,-94.9186,2.0,237.3386335,113.1992849,-99999.0,'11111222,11111222,99999999' 
TABS,ioos:station:wmo:42043:1,2010-07-02T20:30:00Z,28.9818,-94.9186,2.0,236.8800748,111.4226045,-99999.0,'11111222,11111222,99999999' 
TABS,ioos:station:wmo:42043:1,2010-07-02T21:00:00Z,28.9818,-94.9186,2.0,237.2416435,108.7800074,-99999.0,'11111222,11111222,99999999' 
TABS,ioos:station:wmo:42043:1,2010-07-02T21:30:00Z,28.9818,-94.9186,2.0,234.6334317,107.9991898,-99999.0,'11111222,11111222,99999999' 
TABS,ioos:station:wmo:42043:1,2010-07-02T22:00:00Z,28.9818,-94.9186,2.0,235.3101872,108.4465182,-99999.0,'11111222,11111222,99999999' 
TABS,ioos:station:wmo:42043:1,2010-07-02T22:30:00Z,28.9818,-94.9186,2.0,238.0943026,109.8922677,-99999.0,'11111222,11111222,99999999' 
TABS,ioos:station:wmo:42043:1,2010-07-02T23:00:00Z,28.9818,-94.9186,2.0,237.409783,105.1572613,-99999.0,'11111222,11111222,99999999' 
TABS,ioos:station:wmo:42043:1,2010-07-02T23:30:00Z,28.9818,-94.9186,2.0,235.6660721,102.7286352,-99999.0,'11111222,11111222,99999999' 
TABS,ioos:station:wmo:42043:1,2010-07-03T00:00:00Z,28.9818,-94.9186,2.0,237.0622185,108.1065276,-99999.0,'11111222,11111222,99999999' 
TABS,ioos:station:wmo:42043:1,2010-07-03T00:30:00Z,28.9818,-94.9186,2.0,234.655853,101.0058266,-99999.0,'11111222,11111222,99999999' 
TABS,ioos:station:wmo:42043:1,2010-07-03T01:00:00Z,28.9818,-94.9186,2.0,238.7228288,98.86869525,-99999.0,'11111222,11111222,99999999' 
TABS,ioos:station:wmo:42043:1,2010-07-03T01:30:00Z,28.9818,-94.9186,2.0,237.3066501,98.66004764,-99999.0,'11111222,11111222,99999999' 
TABS,ioos:station:wmo:42043:1,2010-07-03T02:00:00Z,28.9818,-94.9186,2.0,237.3318881,101.0436302,-99999.0,'11111222,11111222,99999999' 
TABS,ioos:station:wmo:42043:1,2010-07-03T02:30:00Z,28.9818,-94.9186,2.0,237.2853988,101.7856065,-99999.0,'11111222,11111222,99999999' 
TABS,ioos:station:wmo:42043:1,2010-07-03T03:00:00Z,28.9818,-94.9186,2.0,234.8941795,100.941859,-99999.0,'11111222,11111222,99999999' 
TABS,ioos:station:wmo:42043:1,2010-07-03T03:30:00Z,28.9818,-94.9186,2.0,239.5004255,100.053848,-99999.0,'11111222,11111222,99999999' 
TABS,ioos:station:wmo:42043:1,2010-07-03T04:00:00Z,28.9818,-94.9186,2.0,236.631491,97.25157325,-99999.0,'11111222,11111222,99999999' 
TABS,ioos:station:wmo:42043:1,2010-07-03T04:30:00Z,28.9818,-94.9186,2.0,238.1450119,96.29266068,-99999.0,'11111222,11111222,99999999' 
TABS,ioos:station:wmo:42043:1,2010-07-03T05:00:00Z,28.9818,-94.9186,2.0,239.9917261,90.77825786,-99999.0,'11111222,11111222,99999999' 
TABS,ioos:station:wmo:42043:1,2010-07-03T05:30:00Z,28.9818,-94.9186,2.0,242.4605153,95.2300084,-99999.0,'11111222,11111222,99999999' 
TABS,ioos:station:wmo:42043:1,2010-07-03T06:00:00Z,28.9818,-94.9186,2.0,244.5559904,92.54621818,-99999.0,'11111222,11111222,99999999' 
TABS,ioos:station:wmo:42043:1,2010-07-03T06:30:00Z,28.9818,-94.9186,2.0,242.6577475,92.35809656,-99999.0,'11111222,11111222,99999999' 
TABS,ioos:station:wmo:42043:1,2010-07-03T07:00:00Z,28.9818,-94.9186,2.0,242.1807173,84.40494417,-99999.0,'11111222,11111222,99999999' 
TABS,ioos:station:wmo:42043:1,2010-07-03T07:30:00Z,28.9818,-94.9186,2.0,243.1026945,83.37990166,-99999.0,'11111222,11111222,99999999' 
TABS,ioos:station:wmo:42043:1,2010-07-03T08:00:00Z,28.9818,-94.9186,2.0,241.2429862,79.75627436,-99999.0,'11111222,11111222,99999999' 
TABS,ioos:station:wmo:42043:1,2010-07-03T08:30:00Z,28.9818,-94.9186,2.0,245.2764163,78.6160448,-99999.0,'11111222,11111222,99999999' 
TABS,ioos:station:wmo:42043:1,2010-07-03T09:00:00Z,28.9818,-94.9186,2.0,239.7110014,75.54179572,-99999.0,'11111222,11111222,99999999' 
TABS,ioos:station:wmo:42043:1,2010-07-03T09:30:00Z,28.9818,-94.9186,2.0,240.4792721,73.12275843,-99999.0,'11111222,11111222,99999999' 
TABS,ioos:station:wmo:42043:1,2010-07-03T10:00:00Z,28.9818,-94.9186,2.0,241.2834591,74.82236898,-99999.0,'11111222,11111222,99999999' 
TABS,ioos:station:wmo:42043:1,2010-07-03T10:30:00Z,28.9818,-94.9186,2.0,246.4768795,68.00075073,-99999.0,'11111222,11111222,99999999' 
TABS,ioos:station:wmo:42043:1,2010-07-03T11:00:00Z,28.9818,-94.9186,2.0,244.8029273,69.10526246,-99999.0,'11111222,11111222,99999999' 
TABS,ioos:station:wmo:42043:1,2010-07-03T11:30:00Z,28.9818,-94.9186,2.0,245.5507255,66.975662,-99999.0,'11111222,11111222,99999999' 
TABS,ioos:station:wmo:42043:1,2010-07-03T12:00:00Z,28.9818,-94.9186,2.0,240.9166216,66.57388377,-99999.0,'11111222,11111222,99999999' 
TABS,ioos:station:wmo:42043:1,2010-07-03T12:30:00Z,28.9818,-94.9186,2.0,240.9387732,62.1321857,-99999.0,'11111222,11111222,99999999' 
TABS,ioos:station:wmo:42043:1,2010-07-03T13:00:00Z,28.9818,-94.9186,2.0,240.3728569,67.40185828,-99999.0,'11111222,11111222,99999999' 
TABS,ioos:station:wmo:42043:1,2010-07-03T13:30:00Z,28.9818,-94.9186,2.0,234.9364526,65.27644981,-99999.0,'11111222,11111222,99999999' 
TABS,ioos:station:wmo:42043:1,2010-07-03T14:00:00Z,28.9818,-94.9186,2.0,238.4742345,66.30625385,-99999.0,'11111222,11111222,99999999' 
TABS,ioos:station:wmo:42043:1,2010-07-03T14:30:00Z,28.9818,-94.9186,2.0,235.3379784,68.20464867,-99999.0,'11111222,11111222,99999999' 
TABS,ioos:station:wmo:42043:1,2010-07-03T15:00:00Z,28.9818,-94.9186,2.0,238.2990411,70.14529207,-99999.0,'11111222,11111222,99999999' 
TABS,ioos:station:wmo:42043:1,2010-07-03T15:30:00Z,28.9818,-94.9186,2.0,241.8699415,67.15179819,-99999.0,'11111222,11111222,99999999' 
TABS,ioos:station:wmo:42043:1,2010-07-03T16:00:00Z,28.9818,-94.9186,2.0,239.7844754,69.9653893,-99999.0,'11111222,11111222,99999999' 
TABS,ioos:station:wmo:42043:1,2010-07-03T16:30:00Z,28.9818,-94.9186,2.0,243.6871445,74.06376307,-99999.0,'11111222,11111222,99999999' 
TABS,ioos:station:wmo:42043:1,2010-07-03T17:00:00Z,28.9818,-94.9186,2.0,246.3882983,76.37374222,-99999.0,'11111222,11111222,99999999' 
TABS,ioos:station:wmo:42043:1,2010-07-03T17:30:00Z,28.9818,-94.9186,2.0,244.5155742,77.27884639,-99999.0,'11111222,11111222,99999999' 
TABS,ioos:station:wmo:42043:1,2010-07-03T18:00:00Z,28.9818,-94.9186,2.0,241.3879568,74.38329382,-99999.0,'11111222,11111222,99999999' 
TABS,ioos:station:wmo:42043:1,2010-07-03T18:30:00Z,28.9818,-94.9186,2.0,244.0852697,76.79152623,-99999.0,'11111222,11111222,99999999' 
TABS,ioos:station:wmo:42043:1,2010-07-03T19:00:00Z,28.9818,-94.9186,2.0,247.199016,84.12349553,-99999.0,'11111222,11111222,99999999' 
TABS,ioos:station:wmo:42043:1,2010-07-03T19:30:00Z,28.9818,-94.9186,2.0,246.4488367,82.66552667,-99999.0,'11111222,11111222,99999999' 
TABS,ioos:station:wmo:42043:1,2010-07-03T20:00:00Z,28.9818,-94.9186,2.0,249.4483667,84.09172373,-99999.0,'11111222,11111222,99999999' 
TABS,ioos:station:wmo:42043:1,2010-07-03T20:30:00Z,28.9818,-94.9186,2.0,250.4925283,89.57138494,-99999.0,'11111222,11111222,99999999' 
TABS,ioos:station:wmo:42043:1,2010-07-03T21:00:00Z,28.9818,-94.9186,2.0,247.7517569,83.88484488,-99999.0,'11111222,11111222,99999999' 
TABS,ioos:station:wmo:42043:1,2010-07-03T21:30:00Z,28.9818,-94.9186,2.0,244.8431353,78.59470529,-99999.0,'11111222,11111222,99999999' 
TABS,ioos:station:wmo:42043:1,2010-07-03T22:00:00Z,28.9818,-94.9186,2.0,244.0806885,73.3700552,-99999.0,'11111222,11111222,99999999' 
TABS,ioos:station:wmo:42043:1,2010-07-03T22:30:00Z,28.9818,-94.9186,2.0,242.1321553,72.01104915,-99999.0,'11111222,11111222,99999999' 
TABS,ioos:station:wmo:42043:1,2010-07-03T23:00:00Z,28.9818,-94.9186,2.0,240.7955391,68.86343079,-99999.0,'11111222,11111222,99999999' 
TABS,ioos:station:wmo:42043:1,2010-07-03T23:30:00Z,28.9818,-94.9186,2.0,240.1640105,73.60602489,-99999.0,'11111222,11111222,99999999' 
TABS,ioos:station:wmo:42043:1,2010-07-04T00:00:00Z,28.9818,-94.9186,2.0,237.2147741,67.94261181,-99999.0,'11111222,11111222,99999999' 
TABS,ioos:station:wmo:42043:1,2010-07-04T00:30:00Z,28.9818,-94.9186,2.0,234.4997534,65.24865133,-99999.0,'11111222,11111222,99999999' 
TABS,ioos:station:wmo:42043:1,2010-07-04T01:00:00Z,28.9818,-94.9186,2.0,228.2255615,58.55637455,-99999.0,'11111222,11111222,99999999' 
TABS,ioos:station:wmo:42043:1,2010-07-04T01:30:00Z,28.9818,-94.9186,2.0,232.9919664,61.53617798,-99999.0,'11111222,11111222,99999999' 
TABS,ioos:station:wmo:42043:1,2010-07-04T02:00:00Z,28.9818,-94.9186,2.0,228.5206319,62.52018634,-99999.0,'11111222,11111222,99999999' 
TABS,ioos:station:wmo:42043:1,2010-07-04T02:30:00Z,28.9818,-94.9186,2.0,223.7675121,66.09441202,-99999.0,'11111222,11111222,99999999' 
TABS,ioos:station:wmo:42043:1,2010-07-04T03:00:00Z,28.9818,-94.9186,2.0,224.27894,61.83430925,-99999.0,'11111222,11111222,99999999' 
TABS,ioos:station:wmo:42043:1,2010-07-04T03:30:00Z,28.9818,-94.9186,2.0,224.1180927,65.71921256,-99999.0,'11111222,11111222,99999999' 
TABS,ioos:station:wmo:42043:1,2010-07-04T04:00:00Z,28.9818,-94.9186,2.0,222.2230572,62.03659968,-99999.0,'11111222,11111222,99999999' 
TABS,ioos:station:wmo:42043:1,2010-07-04T04:30:00Z,28.9818,-94.9186,2.0,225.6607097,63.74284744,-99999.0,'11111222,11111222,99999999' 
TABS,ioos:station:wmo:42043:1,2010-07-04T05:00:00Z,28.9818,-94.9186,2.0,222.3295351,63.14248015,-99999.0,'11111222,11111222,99999999' 
TABS,ioos:station:wmo:42043:1,2010-07-04T05:30:00Z,28.9818,-94.9186,2.0,222.3897423,62.26877628,-99999.0,'11111222,11111222,99999999' 
TABS,ioos:station:wmo:42043:1,2010-07-04T06:00:00Z,28.9818,-94.9186,2.0,222.478033,61.3938922,-99999.0,'11111222,11111222,99999999' 
TABS,ioos:station:wmo:42043:1,2010-07-04T06:30:00Z,28.9818,-94.9186,2.0,226.2041737,57.5217046,-99999.0,'11111222,11111222,99999999' 
TABS,ioos:station:wmo:42043:1,2010-07-04T07:00:00Z,28.9818,-94.9186,2.0,225.4442653,57.4117279,-99999.0,'11111222,11111222,99999999' 
TABS,ioos:station:wmo:42043:1,2010-07-04T07:30:00Z,28.9818,-94.9186,2.0,236.8075461,59.67690089,-99999.0,'11111222,11111222,99999999' 
TABS,ioos:station:wmo:42043:1,2010-07-04T08:00:00Z,28.9818,-94.9186,2.0,235.4502725,60.65774147,-99999.0,'11111222,11111222,99999999' 
TABS,ioos:station:wmo:42043:1,2010-07-04T08:30:00Z,28.9818,-94.9186,2.0,237.6784473,62.1136394,-99999.0,'11111222,11111222,99999999' 
TABS,ioos:station:wmo:42043:1,2010-07-04T09:00:00Z,28.9818,-94.9186,2.0,239.0256135,66.89988416,-99999.0,'11111222,11111222,99999999' 
TABS,ioos:station:wmo:42043:1,2010-07-04T09:30:00Z,28.9818,-94.9186,2.0,241.332438,70.10318823,-99999.0,'11111222,11111222,99999999' 
TABS,ioos:station:wmo:42043:1,2010-07-04T10:00:00Z,28.9818,-94.9186,2.0,244.4457199,66.90462764,-99999.0,'11111222,11111222,99999999' 
TABS,ioos:station:wmo:42043:1,2010-07-04T10:30:00Z,28.9818,-94.9186,2.0,244.718122,75.86646163,-99999.0,'11111222,11111222,99999999' 
TABS,ioos:station:wmo:42043:1,2010-07-04T11:00:00Z,28.9818,-94.9186,2.0,247.022635,79.1061521,-99999.0,'11111222,11111222,99999999' 
TABS,ioos:station:wmo:42043:1,2010-07-04T11:30:00Z,28.9818,-94.9186,2.0,249.5560456,79.30489329,-99999.0,'11111222,11111222,99999999' 
TABS,ioos:station:wmo:42043:1,2010-07-04T12:00:00Z,28.9818,-94.9186,2.0,249.3334468,82.19931995,-99999.0,'11111222,11111222,99999999' 
TABS,ioos:station:wmo:42043:1,2010-07-04T12:30:00Z,28.9818,-94.9186,2.0,245.5301891,79.98397902,-99999.0,'11111222,11111222,99999999' 
TABS,ioos:station:wmo:42043:1,2010-07-04T13:00:00Z,28.9818,-94.9186,2.0,247.1156204,78.92160794,-99999.0,'11111222,11111222,99999999' 
TABS,ioos:station:wmo:42043:1,2010-07-04T13:30:00Z,28.9818,-94.9186,2.0,244.6102335,81.95572707,-99999.0,'11111222,11111222,99999999' 
TABS,ioos:station:wmo:42043:1,2010-07-04T14:00:00Z,28.9818,-94.9186,2.0,240.8349476,79.86509876,-99999.0,'11111222,11111222,99999999' 
TABS,ioos:station:wmo:42043:1,2010-07-04T14:30:00Z,28.9818,-94.9186,2.0,239.1647455,77.78509497,-99999.0,'11111222,11111222,99999999' 
TABS,ioos:station:wmo:42043:1,2010-07-04T15:00:00Z,28.9818,-94.9186,2.0,232.3672768,70.63625486,-99999.0,'11111222,11111222,99999999' 
TABS,ioos:station:wmo:42043:1,2010-07-04T15:30:00Z,28.9818,-94.9186,2.0,232.9112698,70.27651101,-99999.0,'11111222,11111222,99999999' 
TABS,ioos:station:wmo:42043:1,2010-07-04T16:00:00Z,28.9818,-94.9186,2.0,226.9343181,65.1404521,-99999.0,'11111222,11111222,99999999' 